www.pogodaiklimat.ru

Погода и климат >> Архив погоды >> Парагвай >> Парагуари


ПОГОДА в Парагуари

  • Прогноз погоды в Парагуари
  • Монитор погоды в Парагуари

АРХИВ ПОГОДЫ в Парагуари

Время (UTC), дата Ветер
(напр.,м/с)
 
Видим.   Явления Облачность Т
(С)
Тd
(С)
f
(%)
Тe
(С)
Тes
(С)
Комфортность P
(гПа)
Po
(гПа)
Тmin
(С)
Tmax
(С)
R
(мм)
R24
(мм)
S
(см)
12 12.01 штиль 0 20 км 8/0 1500 м
[Ac und]
+25.0 +22.2 84 +32 +38 очень
душно
1014.4 1001.0 +23.0 15
15 12.01 СВ 3 20 км 8/8 600 м
[Sc]
+30.0 +23.2 67 +40 +44 очень
душно
1014.8 1001.6
18 12.01 СВ 3 20 км 6/4 1200 м
[Cu hum Ac trans]
+32.0 +21.7 55 +41 +47 опасность
перегрева
1013.1 1000.0
21 12.01 штиль 0 20 км 5/5 1200 м
[Cu hum]
+32.0 +21.7 55 +41 +42 опасность
перегрева
1010.5 997.5
00 13.01 штиль 0 20 км ясно +30.0 +22.7 65 +40 +40 очень
душно
1010.6 997.5 +34.0
03 13.01 штиль 0 20 км ясно +27.0 +24.1 84 +37 +37 очень
душно
1011.3 998.0
12 13.01 СВ 3 20 км ясно +28.0 +23.6 77 +38 +45 очень
душно
1011.2 998.0 +25.0
21 13.01 С 3 20 км 6/6 1200 м
[Cu Sc]
+32.0 +23.3 60 +43 +43 опасность
перегрева
1009.0 996.0
00 14.01 штиль 0 20 км 6/0 1500 м
[Ac und]
+27.4 +23.9 81 +38 +38 очень
душно
1009.9 996.6 +33.4
03 14.01 штиль 0 20 км 8/0 1500 м
[Ac und]
+26.0 +23.2 85 +35 +35 очень
душно
1013.4 1000.0
09 14.01 штиль 0 20 км 10/0 1500 м
[Ac As]
+25.0 +22.0 83 +32 +32 очень
душно
1012.2 999.4
12 14.01 СВ 3 20 км 8/0 2000 м
[Ac und]
+28.0 +22.1 70 +36 +39 очень
душно
1013.0 999.8 +25.0
15 14.01 СВ 3 20 км 8/0 2000 м
[Ac und]
+31.6 +23.5 62 +42 +50 опасность
перегрева
1013.1 1000.0
18 14.01 СВ 3 20 км 8/8 1200 м
[Cu Sc]
+34.4 +22.4 50 +44 +46 опасность
перегрева
1010.9 998.0
21 14.01 штиль 0 20 км 6/6 1200 м
[Cu Sc]
+33.0 +22.9 55 +43 +44 опасность
перегрева
1010.0 997.0
00 15.01 СВ 3 20 км 8/0 1500 м
[Ac As]
+30.0 +22.9 66 +40 +40 очень
душно
1010.1 997.0 +34.4
09 15.01 СВ 2 20 км 5/0
[Ci fib]
+26.0 +23.1 84 +35 +35 очень
душно
1009.9 996.6
12 15.01 СВ 3 20 км 5/0
[Ci]
+29.0 +22.1 66 +37 +44 очень
душно
1011.9 998.7 +26.0
15 15.01 С 1 20 км ясно +31.8 +23.5 62 +43 +68 опасность
перегрева
1012.9 999.9
18 15.01 штиль 0 20 км 4/4 1200 м
[Cu hum]
+34.6 +25.3 59 +49 +62 опасность
перегрева
1011.2 998.3
21 15.01 штиль 0 20 км ясно +34.4 +24.5 56 +47 +50 опасность
перегрева
1010.6 999.4
00 16.01 штиль 0 20 км ясно +32.0 +23.3 60 +43 +43 опасность
перегрева
1009.7 996.7 +35.0
03 16.01 штиль 0 20 км ясно +29.8 +22.9 67 +40 +40 очень
душно
1010.2 997.1
06 16.01 штиль 0 20 км ясно +28.6 +21.9 67 +37 +37 очень
душно
1011.0 997.8
09 16.01 штиль 0 20 км ясно +26.6 +22.5 78 +35 +35 очень
душно
1011.9 998.2
12 16.01 С 3 20 км 4/0 1500 м
[Ac und]
+30.4 +21.2 58 +38 +43 очень
душно
1011.5 998.4 +26.6
15 16.01 С 4 20 км 4/4 1200 м
[Cu hum]
+32.6 +21.8 53 +41 +49 опасность
перегрева
1011.9 998.9
18 16.01 С 2 20 км 5/5 1200 м
[Cu med, cong]
+34.8 +23.7 53 +46 +54 опасность
перегрева
1010.4 997.5
21 16.01 штиль 0 20 км 4/4 1200 м
[Cu med, cong]
+34.6 +25.2 58 +48 +50 опасность
перегрева
1009.4 996.5
00 17.01 штиль 0 20 км ясно +31.8 +23.6 62 +43 +43 опасность
перегрева
1009.7 996.7 +36.0
03 17.01 штиль 0 20 км ясно +30.2 +23.2 66 +40 +40 очень
душно
1010.3 997.2
06 17.01 штиль 0 20 км ясно +28.8 +23.2 72 +39 +39 очень
душно
1011.3 998.0
09 17.01 штиль 0 20 км ясно +27.6 +20.7 66 +34 +34 очень
душно
1011.4 998.2
12 17.01 С 5 20 км ясно +30.8 +22.2 60 +40 +44 очень
душно
1011.5 998.4 +27.6
15 17.01 С 3 20 км ясно +32.4 +23.1 58 +43 +60 опасность
перегрева
1015.9 998.9
18 17.01 С 1 20 км ясно +25.8 +24.7 94 +37 +56 опасность
солнечного
удара
1010.5 997.6
21 17.01 штиль 0 20 км ясно +35.6 +23.5 50 +46 +50 опасность
перегрева
1008.9 996.0
00 18.01 штиль 0 20 км ясно +32.0 +23.3 60 +43 +43 опасность
перегрева
1009.1 996.1 +37.0
03 18.01 штиль 0 20 км ясно +30.0 +22.7 65 +40 +40 очень
душно
1009.7 996.6
09 18.01 штиль 0 20 км ясно +28.8 +21.9 66 +37 +37 очень
душно
1010.8 997.6
12 18.01 штиль 0 20 км 10/0 1500 м
[Ac As]
+29.2 +23.1 70 +39 +43 очень
душно
1011.4 998.2 +28.8
15 18.01 Ю 1 20 км 10/10 450 м
[Sc]
+28.8 +23.3 72 +39 +39 очень
душно
1012.8 999.6
18 18.01 Ю 2 20 км 10/10 300 м
[Sc]
+25.0 +23.5 91 +34 +34 очень
душно
1012.1 998.0
21 18.01 Ю 1 20 км 10/10 300 м
[Sc]
+23.8 +22.6 93 +31 +31 очень
душно
1012.1 998.7
00 19.01 Ю 1 4000 м слаб. морось 10/10 240 м
[St]
+23.2 +22.9 98 +32 +32 очень
душно
1012.5 999.1 +32.0 0.0
03 19.01 штиль 0 4000 м слаб. морось 10/10 180 м
[St]
+22.4 +21.9 97 +30 +30 очень
душно
1012.2 998.7 0.3
06 19.01 штиль 0 3000 м слаб. морось 10/10 180 м
[St]
+20.6 +19.9 96 +25 +25 комфорт 1012.5 999.0 0.4

 

Местоположение метеостанции Парагуари (Парагвай): широта -25.63 долгота -57.13 высота над уровнем моря 116 м.

В архиве по умолчанию представлена погода в Парагуари за последнюю неделю. Архивные данные за месяц целиком и за предыдущие месяцы, начиная с января 2011 года, Вы можете получить, выбрав интересующий диапазон дат из раскрывающегося списка и нажав кнопку "Ввод!".


*Определитесь, кто Вы:
робот инопланетянин человек

Внимание! Время в таблицах - всемирное. Для получения местного времени необходимо прибавить поправку, которая равна -4 ч.

Смотрите также архив погоды в соседних городах и на ближайших метеорологических станциях:

Погода в Асунсьоне (Парагвай) (57 км)
Погода в Куйкуйо (Парагвай) (67 км)
Погода в Вильяррике (Парагвай) (71 км)
Погода в Коронель-Овьедо (Парагвай) (80 км)
Погода в Каасапе (Парагвай) (99 км)
Погода в Сан Хуан Батистута (Парагвай) (115 км)
Погода в Формосе (Аргентина) (127 км)
Погода в Сан Эстанислао (Парагвай) (130 км)
Погода в Сан-Педро (Парагвай) (175 км)
Погода в Пиларе (Парагвай) (180 км)

Пояснения к столбцам:

Ветер - указаны скорость ветра в м/с - средняя за 10 мин, порывы в срок и между сроками (в фигурных скобках) и направление, откуда дует ветер: С - северный, СВ - северо-восточный, В - восточный, ЮВ - юго-восточный, Ю - южный, ЮЗ - юго-западный, З - западный, СЗ - северо-западный.
Видимость - горизонтальная дальность видимости в метрах или километрах. При видимости от 1 до 10 км при отсутствии осадков обычно наблюдается дымка, при ухудшении видимости до 1 км и менее - туман. В сухую погоду видимость может ухудшаться дымом, пылью или мглою.
Явления - указаны атмосферные явления, наблюдавшиеся в срок или в последний час перед сроком; фигурными скобками обозначены явления, наблюдавшиеся между сроками (за 1-3 часа до срока); квадратными скобками обозначены град или гололедные отложения с указанием их диаметра в мм.
Облачность - указаны через наклонную черту общая и нижняя облачность в баллах и высота нижней границы облаков в метрах; квадратными скобками обозначены формы облаков: Ci - перистые, Cs - перисто-слоистые, Cc - перисто-кучевые, Ac - высококучевые, As - высокослоистые, Sc - слоисто-кучевые, Ns - слоисто-дождевые, Cu - кучевые, Cb - кучево-дождевые. Подробнее классификацию облаков см. в Атласе облаков (PDF).
T - Температура воздуха - температура, измеренная на высоте 2 м над землей.
Td - Температура точки росы - температура, при понижении до которой содержащийся в воздухе водяной пар достигнет насыщения.
f - Относительная влажность воздуха - влажноcть воздуха, измеренная на высоте 2 м над землей.
Te - Эффективная температура - температура, которую ощущает одетый по сезону человек в тени. Характеристика душности погоды. При расчете учитывается влияние влажности воздуха и скорости ветра на теплоощущения человека.
Tes - Эффективная температура на солнце - температура, которую ощущает человек, с поправкой на солнечный нагрев. Характеристика знойности погоды. Зависит от высоты солнца над горизонтом, облачности и скорости ветра. Ночью, в пасмурную погоду, а также при ветре 12 м/с и более поправка равна нулю.
P - Атмосферное давление - приведенное к уровню моря атмосферное давление.
Po - Атмосферное давление - измеренное на уровне метеостанции атмосферное давление.
Tmin - Минимальная температура - минимум температуры воздуха на высоте 2 м над землей.
Tmax - Максимальная температура - максимум температуры воздуха на высоте 2 м над землей.
R - Количество осадков - Количество выпавших осадков за период времени, мм. При наведении курсора мыши на число - период времени, за который выпало указанное количество осадков.
R24 - Количество осадков - Количество выпавших осадков за 24 часа, мм.
S - Снежный покров - Высота снежного покрова, см. При наведении курсора мыши на число - состояние снежного покрова и степень покрытия местности в баллах.